| time (UTC) | temp F | wind direction | speed MPH | gust MPH | rain 1hr in | rain 24hr in | rain mn in | humidity % | barometer mb |
| 20260507070242 | 52 | 311 | 1.0 | 3.0 | 0.01 | 0.49 | 0.01 | 67 | 1010.8 |
| 20260507065742 | 52 | 330 | 0.0 | 3.0 | 0.01 | 0.49 | 0.01 | 67 | 1010.8 |
| 20260507065241 | 52 | 288 | 0.0 | 6.0 | 0.01 | 0.49 | 0.01 | 69 | 1010.8 |
| 20260507064742 | 53 | 279 | 1.0 | 6.0 | 0.01 | 0.49 | 0.01 | 69 | 1010.8 |
| 20260507064512 | 52 | 19 | 0.0 | 7.0 | 0.01 | 0.49 | 0.01 | 76 | 1010.7 |
| 20260507063742 | 52 | 7 | 1.0 | 7.0 | 0.01 | 0.49 | 0.01 | 76 | 1010.6 |
| 20260507063242 | 52 | 308 | 0.0 | 2.0 | 0.01 | 0.49 | 0.01 | 83 | 1010.8 |
| 20260507062959 | 53 | 20 | 0.0 | 2.0 | 0.01 | 0.49 | 0.01 | 83 | 1010.8 |
| 20260507062242 | 53 | 311 | 0.0 | 2.0 | 0.00 | 0.48 | 0.00 | 82 | 1010.8 |
| 20260507061742 | 53 | 328 | 0.0 | 1.0 | 0.00 | 0.48 | 0.00 | 85 | 1010.8 |
| 20260507061242 | 53 | 14 | 0.0 | 3.0 | 0.00 | 0.48 | 0.00 | 84 | 1010.7 |
| 20260507060742 | 53 | 13 | 0.0 | 3.0 | 0.00 | 0.48 | 0.00 | 85 | 1010.8 |
| 20260507060241 | 53 | 1 | 0.0 | 1.0 | 0.00 | 0.48 | 0.00 | 85 | 1010.8 |
| 20260507055741 | 53 | 25 | 0.0 | 0.0 | 0.00 | 0.48 | 0.00 | 86 | 1010.7 |
| 20260507055241 | 53 | 12 | 0.0 | 3.0 | 0.00 | 0.48 | 0.00 | 86 | 1010.6 |
| 20260507054742 | 53 | 329 | 0.0 | 3.0 | 0.00 | 0.48 | 0.00 | 85 | 1010.4 |
| 20260507054242 | 53 | 329 | 0.0 | 1.0 | 0.00 | 0.48 | 0.00 | 87 | 1010.6 |
| 20260507054007 | 53 | 290 | 1.0 | 1.0 | 0.00 | 0.48 | 0.00 | 87 | 1010.5 |
| 20260507053242 | 53 | 4 | 0.0 | 2.0 | 0.00 | 0.48 | 0.00 | 87 | 1010.3 |
| 20260507053230 | 53 | 19 | 0.0 | 2.0 | 0.00 | 0.48 | 0.00 | 87 | 1010.6 |
| 20260507052242 | 53 | 14 | 0.0 | 1.0 | 0.00 | 0.48 | 0.00 | 87 | 1010.3 |
| 20260507051742 | 53 | 5 | 0.0 | 1.0 | 0.00 | 0.48 | 0.00 | 87 | 1010.5 |
| 20260507051242 | 53 | 3 | 0.0 | 1.0 | 0.00 | 0.48 | 0.00 | 88 | 1011.0 |
| 20260507050741 | 53 | 13 | 0.0 | 1.0 | 0.00 | 0.48 | 0.00 | 88 | 1010.7 |
| 20260507050242 | 53 | 2 | 0.0 | 3.0 | 0.00 | 0.48 | 0.00 | 89 | 1010.4 |
| 20260507050000 | 53 | 4 | 0.0 | 3.0 | 0.00 | 0.48 | 0.00 | 89 | 1010.6 |
| 20260507045242 | 53 | 14 | 0.0 | 2.0 | 0.00 | 0.48 | 0.00 | 90 | 1010.7 |
| 20260507044742 | 53 | 318 | 1.0 | 3.0 | 0.00 | 0.48 | 0.00 | 89 | 1010.7 |
| 20260507044242 | 53 | 14 | 1.0 | 3.0 | 0.00 | 0.48 | 0.00 | 89 | 1010.7 |
| 20260507043742 | 53 | 17 | 0.0 | 1.0 | 0.00 | 0.48 | 0.00 | 90 | 1010.9 |
| 20260507043242 | 53 | 18 | 0.0 | 2.0 | 0.00 | 0.48 | 0.00 | 89 | 1010.7 |
| 20260507042741 | 53 | 324 | 0.0 | 2.0 | 0.00 | 0.48 | 0.00 | 89 | 1010.6 |
| 20260507042242 | 54 | 20 | 0.0 | 2.0 | 0.00 | 0.48 | 0.00 | 87 | 1010.6 |
| 20260507042008 | 54 | 322 | 1.0 | 2.0 | 0.00 | 0.48 | 0.00 | 87 | 1010.5 |
| 20260507041241 | 54 | 14 | 0.0 | 2.0 | 0.00 | 0.48 | 0.00 | 87 | 1010.6 |
| 20260507040741 | 54 | 315 | 1.0 | 4.0 | 0.00 | 0.48 | 0.00 | 87 | 1010.7 |
| 20260507040242 | 55 | 15 | 1.0 | 4.0 | 0.00 | 0.48 | 0.00 | 86 | 1010.9 |
| 20260507035742 | 55 | 312 | 1.0 | 2.0 | 0.00 | 0.48 | 0.48 | 86 | 1010.6 |
| 20260507035241 | 55 | 302 | 0.0 | 3.0 | 0.00 | 0.48 | 0.48 | 85 | 1010.7 |
| 20260507034741 | 55 | 1 | 0.0 | 3.0 | 0.00 | 0.48 | 0.48 | 85 | 1010.4 |
| 20260507034241 | 55 | 297 | 1.0 | 3.0 | 0.00 | 0.48 | 0.48 | 85 | 1010.7 |
| 20260507033741 | 55 | 334 | 0.0 | 2.0 | 0.00 | 0.48 | 0.48 | 85 | 1010.3 |
| 20260507033504 | 55 | 289 | 0.0 | 2.0 | 0.00 | 0.48 | 0.48 | 86 | 1010.6 |
| 20260507032742 | 55 | 285 | 2.0 | 2.0 | 0.00 | 0.48 | 0.48 | 85 | 1010.3 |
| 20260507032242 | 55 | 4 | 0.0 | 2.0 | 0.00 | 0.48 | 0.48 | 86 | 1010.1 |
| 20260507031742 | 55 | 19 | 0.0 | 2.0 | 0.00 | 0.48 | 0.48 | 85 | 1010.0 |
| 20260507031242 | 55 | 7 | 0.0 | 1.0 | 0.00 | 0.48 | 0.48 | 86 | 1010.1 |
| 20260507030742 | 55 | 11 | 0.0 | 3.0 | 0.00 | 0.48 | 0.48 | 85 | 1010.4 |
| 20260507030242 | 55 | 318 | 0.0 | 3.0 | 0.00 | 0.48 | 0.48 | 86 | 1010.1 |
| 20260507025741 | 55 | 324 | 0.0 | 4.0 | 0.00 | 0.48 | 0.48 | 86 | 1010.3 |
| 20260507025242 | 56 | 20 | 0.0 | 4.0 | 0.00 | 0.48 | 0.48 | 86 | 1010.3 |
| 20260507024742 | 56 | 316 | 0.0 | 3.0 | 0.00 | 0.48 | 0.48 | 86 | 1010.2 |
| 20260507024242 | 56 | 283 | 2.0 | 2.0 | 0.00 | 0.48 | 0.48 | 86 | 1010.3 |
| 20260507023742 | 56 | 13 | 0.0 | 4.0 | 0.00 | 0.48 | 0.48 | 86 | 1010.2 |
| 20260507023242 | 56 | 20 | 0.0 | 4.0 | 0.00 | 0.48 | 0.48 | 85 | 1010.3 |
| 20260507023006 | 56 | 308 | 0.0 | 3.0 | 0.00 | 0.48 | 0.48 | 86 | 1010.3 |
| 20260507022241 | 56 | 3 | 1.0 | 3.0 | 0.00 | 0.48 | 0.48 | 86 | 1010.2 |
| 20260507021741 | 56 | 314 | 1.0 | 3.0 | 0.00 | 0.48 | 0.48 | 86 | 1010.0 |
| 20260507021241 | 57 | 318 | 1.0 | 2.0 | 0.00 | 0.48 | 0.48 | 86 | 1009.8 |
| 20260507020742 | 57 | 321 | 0.0 | 1.0 | 0.00 | 0.48 | 0.48 | 86 | 1010.0 |
| 20260507020241 | 58 | 20 | 0.0 | 2.0 | 0.00 | 0.48 | 0.48 | 85 | 1010.0 |
| 20260507015741 | 58 | 331 | 0.0 | 2.0 | 0.00 | 0.48 | 0.48 | 84 | 1010.0 |
| 20260507015241 | 58 | 316 | 0.0 | 2.0 | 0.00 | 0.48 | 0.48 | 85 | 1009.9 |
| 20260507014742 | 58 | 295 | 1.0 | 2.0 | 0.00 | 0.48 | 0.48 | 85 | 1010.0 |
| 20260507014242 | 58 | 283 | 0.0 | 2.0 | 0.00 | 0.48 | 0.48 | 85 | 1010.2 |
| 20260507013742 | 58 | 300 | 1.0 | 2.0 | 0.00 | 0.48 | 0.48 | 85 | 1010.3 |
| 20260507013241 | 58 | 331 | 0.0 | 3.0 | 0.00 | 0.48 | 0.48 | 86 | 1010.1 |
| 20260507012959 | 58 | 330 | 0.0 | 4.0 | 0.00 | 0.48 | 0.48 | 85 | 1010.0 |
| 20260507012241 | 58 | 325 | 0.0 | 4.0 | 0.00 | 0.48 | 0.48 | 85 | 1010.2 |
| 20260507011741 | 58 | 312 | 0.0 | 2.0 | 0.00 | 0.48 | 0.48 | 85 | 1009.9 |
| 20260507011722 | 58 | 304 | 1.0 | 2.0 | 0.00 | 0.48 | 0.48 | 86 | 1010.1 |
| 20260507010741 | 59 | 304 | 0.0 | 2.0 | 0.00 | 0.48 | 0.48 | 85 | 1009.8 |
| 20260507010241 | 59 | 306 | 0.0 | 2.0 | 0.00 | 0.48 | 0.48 | 85 | 1009.6 |
| 20260507005730 | 59 | 324 | 2.0 | 2.0 | 0.00 | 0.48 | 0.48 | 85 | 1009.7 |
| 20260507005230 | 59 | 324 | 1.0 | 2.0 | 0.00 | 0.48 | 0.48 | 86 | 1009.7 |
| 20260507004730 | 59 | 320 | 1.0 | 3.0 | 0.00 | 0.48 | 0.48 | 86 | 1009.5 |
| 20260507004230 | 59 | 326 | 2.0 | 3.0 | 0.00 | 0.48 | 0.48 | 84 | 1009.5 |
| 20260507004209 | 59 | 329 | 0.0 | 1.0 | 0.00 | 0.48 | 0.48 | 87 | 1009.4 |
| 20260507003230 | 59 | 305 | 0.0 | 1.0 | 0.00 | 0.48 | 0.48 | 86 | 1009.3 |
| 20260507002730 | 59 | 319 | 1.0 | 1.0 | 0.00 | 0.48 | 0.48 | 86 | 1009.0 |
| 20260507002217 | 59 | 20 | 0.0 | 2.0 | 0.00 | 0.48 | 0.48 | 87 | 1009.0 |
| 20260507001716 | 59 | 4 | 0.0 | 3.0 | 0.00 | 0.48 | 0.48 | 87 | 1009.2 |
| 20260507001217 | 59 | 324 | 0.0 | 4.0 | 0.00 | 0.48 | 0.48 | 88 | 1009.0 |
| 20260507000704 | 60 | 308 | 3.0 | 4.0 | 0.00 | 0.48 | 0.48 | 87 | 1008.8 |
| 20260507000648 | 59 | 330 | 0.0 | 2.0 | 0.00 | 0.48 | 0.48 | 88 | 1008.7 |
| 20260506235705 | 60 | 320 | 1.0 | 2.0 | 0.00 | 0.48 | 0.48 | 91 | 1008.5 |
| 20260506235152 | 60 | 15 | 0.0 | 0.0 | 0.00 | 0.48 | 0.48 | 92 | 1008.5 |
| 20260506234653 | 60 | 18 | 0.0 | 2.0 | 0.00 | 0.48 | 0.48 | 91 | 1008.4 |
| 20260506234152 | 60 | 19 | 1.0 | 3.0 | 0.00 | 0.48 | 0.48 | 91 | 1008.2 |
| 20260506233902 | 60 | 13 | 0.0 | 3.0 | 0.00 | 0.48 | 0.48 | 92 | 1007.9 |
| 20260506233141 | 60 | 329 | 0.0 | 2.0 | 0.00 | 0.48 | 0.48 | 93 | 1007.8 |
| 20260506232641 | 61 | 20 | 0.0 | 3.0 | 0.00 | 0.48 | 0.48 | 94 | 1008.0 |
| 20260506232141 | 61 | 14 | 1.0 | 3.0 | 0.01 | 0.48 | 0.48 | 93 | 1007.8 |
| 20260506231641 | 61 | 332 | 0.0 | 6.0 | 0.03 | 0.48 | 0.48 | 93 | 1007.9 |
| 20260506231141 | 62 | 321 | 0.0 | 6.0 | 0.03 | 0.48 | 0.48 | 93 | 1007.9 |
| 20260506230641 | 62 | 24 | 0.0 | 6.0 | 0.03 | 0.48 | 0.48 | 94 | 1007.8 |
| 20260506230141 | 62 | 322 | 0.0 | 4.0 | 0.03 | 0.48 | 0.48 | 95 | 1007.9 |
| 20260506225641 | 63 | 25 | 1.0 | 3.0 | 0.03 | 0.48 | 0.48 | 96 | 1007.7 |
| 20260506225141 | 63 | 324 | 0.0 | 1.0 | 0.03 | 0.48 | 0.48 | 96 | 1007.8 |
| 20260506224641 | 63 | 331 | 0.0 | 0.0 | 0.03 | 0.48 | 0.48 | 96 | 1007.8 |
| 20260506224353 | 63 | 330 | 0.0 | 1.0 | 0.03 | 0.48 | 0.48 | 96 | 1007.4 |
| 20260506224236 | 63 | 332 | 0.0 | 1.0 | 0.03 | 0.48 | 0.48 | 96 | 1007.6 |
| 20260506223141 | 63 | 314 | 0.0 | 2.0 | 0.03 | 0.48 | 0.48 | 96 | 1007.5 |
| 20260506222905 | 64 | 9 | 0.0 | 2.0 | 0.03 | 0.48 | 0.48 | 95 | 1007.5 |
| 20260506222140 | 64 | 10 | 0.0 | 2.0 | 0.02 | 0.47 | 0.47 | 92 | 1007.4 |
| 20260506221641 | 65 | 321 | 0.0 | 2.0 | 0.00 | 0.45 | 0.45 | 90 | 1007.2 |
| 20260506221141 | 65 | 274 | 0.0 | 2.0 | 0.00 | 0.45 | 0.45 | 90 | 1007.4 |
| 20260506220641 | 65 | 334 | 1.0 | 3.0 | 0.00 | 0.45 | 0.45 | 89 | 1007.0 |
| 20260506220128 | 65 | 12 | 0.0 | 3.0 | 0.00 | 0.45 | 0.45 | 89 | 1007.0 |
| 20260506215628 | 65 | 334 | 0.0 | 2.0 | 0.00 | 0.45 | 0.45 | 87 | 1007.0 |
| 20260506215128 | 66 | 332 | 0.0 | 2.0 | 0.00 | 0.45 | 0.45 | 87 | 1006.8 |
| 20260506214628 | 66 | 261 | 0.0 | 2.0 | 0.00 | 0.45 | 0.45 | 87 | 1007.1 |
| 20260506214128 | 66 | 307 | 0.0 | 3.0 | 0.00 | 0.45 | 0.45 | 87 | 1006.9 |
| 20260506213628 | 66 | 278 | 1.0 | 3.0 | 0.00 | 0.45 | 0.45 | 86 | 1006.8 |
| 20260506213129 | 67 | 22 | 0.0 | 2.0 | 0.00 | 0.45 | 0.45 | 85 | 1006.4 |
| 20260506212617 | 67 | 317 | 0.0 | 2.0 | 0.00 | 0.45 | 0.45 | 84 | 1006.4 |
| 20260506212117 | 67 | 296 | 0.0 | 1.0 | 0.00 | 0.45 | 0.45 | 85 | 1006.4 |
| 20260506211617 | 67 | 293 | 0.0 | 2.0 | 0.00 | 0.45 | 0.45 | 84 | 1006.7 |
| 20260506211105 | 67 | 235 | 0.0 | 3.0 | 0.00 | 0.45 | 0.45 | 84 | 1006.1 |
| 20260506210605 | 67 | 268 | 1.0 | 3.0 | 0.00 | 0.45 | 0.45 | 83 | 1006.6 |
| 20260506210105 | 67 | 189 | 1.0 | 3.0 | 0.00 | 0.45 | 0.45 | 85 | 1006.4 |
| 20260506205553 | 67 | 183 | 0.0 | 3.0 | 0.00 | 0.45 | 0.45 | 85 | 1006.4 |
| 20260506205053 | 67 | 8 | 0.0 | 2.0 | 0.00 | 0.45 | 0.45 | 85 | 1006.4 |
| 20260506204821 | 67 | 280 | 1.0 | 3.0 | 0.00 | 0.45 | 0.45 | 84 | 1006.3 |
| 20260506204041 | 67 | 7 | 0.0 | 3.0 | 0.00 | 0.45 | 0.45 | 84 | 1006.6 |
| 20260506203757 | 67 | 4 | 0.0 | 2.0 | 0.00 | 0.45 | 0.45 | 84 | 1006.3 |
| 20260506203040 | 67 | 329 | 0.0 | 2.0 | 0.00 | 0.45 | 0.45 | 86 | 1006.4 |
| 20260506202541 | 67 | 305 | 0.0 | 2.0 | 0.00 | 0.45 | 0.45 | 85 | 1006.2 |
| 20260506202041 | 67 | 332 | 0.0 | 2.0 | 0.00 | 0.45 | 0.45 | 85 | 1006.3 |
| 20260506201541 | 67 | 292 | 0.0 | 2.0 | 0.00 | 0.45 | 0.45 | 86 | 1006.6 |
| 20260506201041 | 66 | 287 | 0.0 | 3.0 | 0.00 | 0.45 | 0.45 | 85 | 1006.4 |
| 20260506200541 | 66 | 262 | 0.0 | 4.0 | 0.00 | 0.45 | 0.45 | 87 | 1006.4 |
| 20260506200041 | 66 | 313 | 0.0 | 4.0 | 0.00 | 0.45 | 0.45 | 86 | 1006.3 |
| 20260506195541 | 66 | 182 | 1.0 | 4.0 | 0.00 | 0.45 | 0.45 | 86 | 1006.2 |
| 20260506195040 | 66 | 1 | 0.0 | 4.0 | 0.00 | 0.45 | 0.45 | 86 | 1006.6 |
| 20260506194529 | 66 | 188 | 1.0 | 2.0 | 0.00 | 0.45 | 0.45 | 87 | 1006.7 |
| 20260506194029 | 65 | 297 | 0.0 | 3.0 | 0.00 | 0.45 | 0.45 | 88 | 1006.7 |
| 20260506193952 | 65 | 194 | 1.0 | 3.0 | 0.00 | 0.45 | 0.45 | 87 | 1006.7 |
| 20260506193446 | 65 | 316 | 0.0 | 2.0 | 0.00 | 0.45 | 0.45 | 89 | 1006.7 |
| 20260506192505 | 65 | 314 | 0.0 | 2.0 | 0.00 | 0.45 | 0.45 | 89 | 1006.6 |
| 20260506191952 | 65 | 22 | 0.0 | 2.0 | 0.00 | 0.45 | 0.45 | 90 | 1006.6 |
| 20260506191453 | 64 | 22 | 0.0 | 4.0 | 0.00 | 0.45 | 0.45 | 90 | 1006.6 |
| 20260506191219 | 64 | 332 | 1.0 | 4.0 | 0.00 | 0.45 | 0.45 | 90 | 1006.6 |
| 20260506190441 | 64 | 328 | 0.0 | 2.0 | 0.00 | 0.45 | 0.45 | 90 | 1006.8 |
| 20260506190200 | 64 | 59 | 0.0 | 2.0 | 0.00 | 0.45 | 0.45 | 91 | 1006.9 |
| 20260506185441 | 64 | 290 | 1.0 | 2.0 | 0.00 | 0.45 | 0.45 | 90 | 1006.9 |
| 20260506184941 | 64 | 262 | 0.0 | 6.0 | 0.00 | 0.45 | 0.45 | 90 | 1006.8 |
| 20260506184441 | 64 | 308 | 0.0 | 6.0 | 0.00 | 0.45 | 0.45 | 91 | 1007.0 |
| 20260506183941 | 63 | 312 | 0.0 | 3.0 | 0.00 | 0.45 | 0.45 | 92 | 1007.1 |
| 20260506183441 | 63 | 321 | 0.0 | 2.0 | 0.00 | 0.45 | 0.45 | 92 | 1007.3 |
| 20260506182928 | 63 | 290 | 1.0 | 4.0 | 0.00 | 0.45 | 0.45 | 92 | 1007.0 |
| 20260506182428 | 62 | 245 | 1.0 | 4.0 | 0.00 | 0.45 | 0.45 | 93 | 1007.2 |
| 20260506181928 | 62 | 2 | 0.0 | 3.0 | 0.00 | 0.45 | 0.45 | 94 | 1007.1 |
| 20260506181428 | 62 | 309 | 0.0 | 4.0 | 0.00 | 0.45 | 0.45 | 94 | 1007.2 |
| 20260506180929 | 62 | 265 | 0.0 | 4.0 | 0.00 | 0.45 | 0.45 | 93 | 1007.1 |
| 20260506180428 | 62 | 266 | 0.0 | 3.0 | 0.00 | 0.45 | 0.45 | 94 | 1007.1 |
| 20260506175929 | 62 | 306 | 0.0 | 4.0 | 0.00 | 0.45 | 0.45 | 94 | 1007.1 |
| 20260506175429 | 62 | 268 | 2.0 | 4.0 | 0.00 | 0.45 | 0.45 | 94 | 1007.1 |
| 20260506174929 | 62 | 282 | 0.0 | 3.0 | 0.00 | 0.45 | 0.45 | 95 | 1007.2 |
| 20260506174654 | 62 | 189 | 2.0 | 2.0 | 0.00 | 0.45 | 0.45 | 95 | 1007.2 |
| 20260506173929 | 61 | 284 | 0.0 | 3.0 | 0.00 | 0.45 | 0.45 | 95 | 1007.2 |
| 20260506173428 | 61 | 67 | 0.0 | 3.0 | 0.00 | 0.45 | 0.45 | 95 | 1007.0 |
| 20260506172929 | 61 | 324 | 0.0 | 3.0 | 0.00 | 0.45 | 0.45 | 95 | 1007.2 |
| 20260506172429 | 61 | 214 | 0.0 | 3.0 | 0.00 | 0.45 | 0.45 | 95 | 1007.2 |
| 20260506172148 | 61 | 279 | 0.0 | 3.0 | 0.00 | 0.45 | 0.45 | 96 | 1007.2 |
| 20260506171429 | 61 | 293 | 2.0 | 4.0 | 0.00 | 0.45 | 0.45 | 96 | 1007.1 |
| 20260506170928 | 61 | 167 | 0.0 | 2.0 | 0.00 | 0.45 | 0.45 | 97 | 1007.4 |
| 20260506170429 | 60 | 305 | 0.0 | 3.0 | 0.00 | 0.45 | 0.45 | 97 | 1007.4 |
| 20260506165929 | 60 | 189 | 1.0 | 6.0 | 0.00 | 0.45 | 0.45 | 97 | 1007.4 |
| 20260506165428 | 60 | 289 | 0.0 | 6.0 | 0.00 | 0.45 | 0.45 | 98 | 1007.3 |
| 20260506164928 | 60 | 316 | 0.0 | 1.0 | 0.00 | 0.45 | 0.45 | 98 | 1007.2 |
| 20260506164429 | 60 | 17 | 0.0 | 1.0 | 0.00 | 0.45 | 0.45 | 98 | 1007.3 |
| 20260506164156 | 60 | 66 | 0.0 | 2.0 | 0.00 | 0.45 | 0.45 | 98 | 1007.3 |
| 20260506163902 | 60 | 41 | 0.0 | 2.0 | 0.00 | 0.45 | 0.45 | 98 | 1007.2 |
| 20260506162916 | 60 | 76 | 0.0 | 1.0 | 0.00 | 0.45 | 0.45 | 98 | 1007.1 |
| 20260506162641 | 60 | 60 | 0.0 | 2.0 | 0.00 | 0.45 | 0.45 | 98 | 1007.3 |
| 20260506161904 | 60 | 240 | 0.0 | 2.0 | 0.00 | 0.45 | 0.45 | 98 | 1007.1 |
| 20260506161623 | 60 | 118 | 0.0 | 2.0 | 0.01 | 0.45 | 0.45 | 98 | 1007.2 |
| 20260506160903 | 60 | 224 | 0.0 | 2.0 | 0.02 | 0.45 | 0.45 | 98 | 1007.4 |
| 20260506160352 | 60 | 318 | 0.0 | 2.0 | 0.03 | 0.45 | 0.45 | 98 | 1007.2 |
| 20260506155852 | 60 | 10 | 0.0 | 2.0 | 0.04 | 0.45 | 0.45 | 98 | 1007.2 |
| 20260506155352 | 60 | 72 | 0.0 | 2.0 | 0.06 | 0.45 | 0.45 | 98 | 1007.6 |
| 20260506154840 | 60 | 299 | 0.0 | 2.0 | 0.07 | 0.45 | 0.45 | 98 | 1007.8 |
| 20260506154340 | 60 | 24 | 0.0 | 2.0 | 0.09 | 0.45 | 0.45 | 98 | 1007.6 |
| 20260506153840 | 60 | 279 | 0.0 | 2.0 | 0.10 | 0.45 | 0.45 | 98 | 1007.4 |
| 20260506153340 | 60 | 303 | 0.0 | 2.0 | 0.13 | 0.45 | 0.45 | 98 | 1007.5 |
| 20260506152840 | 60 | 241 | 0.0 | 2.0 | 0.18 | 0.45 | 0.45 | 98 | 1007.2 |
| 20260506152340 | 60 | 56 | 0.0 | 2.0 | 0.24 | 0.45 | 0.45 | 98 | 1007.4 |
| 20260506151839 | 60 | 145 | 0.0 | 2.0 | 0.28 | 0.45 | 0.45 | 98 | 1007.0 |
| 20260506151339 | 60 | 178 | 1.0 | 2.0 | 0.27 | 0.44 | 0.44 | 98 | 1007.2 |
| 20260506150840 | 60 | 197 | 0.0 | 2.0 | 0.26 | 0.43 | 0.43 | 98 | 1007.5 |
| 20260506150340 | 60 | 181 | 1.0 | 2.0 | 0.24 | 0.41 | 0.42 | 98 | 1007.5 |
| 20260506145840 | 60 | 169 | 2.0 | 2.0 | 0.25 | 0.41 | 0.41 | 98 | 1007.6 |
| 20260506145340 | 60 | 124 | 1.0 | 2.0 | 0.23 | 0.39 | 0.39 | 98 | 1007.6 |
| 20260506144840 | 60 | 282 | 0.0 | 1.0 | 0.24 | 0.38 | 0.38 | 98 | 1007.8 |
| 20260506144340 | 60 | 89 | 0.0 | 1.0 | 0.23 | 0.36 | 0.36 | 98 | 1008.1 |
| 20260506143839 | 60 | 322 | 0.0 | 2.0 | 0.23 | 0.35 | 0.35 | 97 | 1008.4 |
| 20260506143340 | 60 | 300 | 2.0 | 3.0 | 0.21 | 0.32 | 0.32 | 97 | 1008.2 |
| 20260506143108 | 60 | 67 | 0.0 | 3.0 | 0.17 | 0.27 | 0.28 | 97 | 1008.3 |
| 20260506142340 | 60 | 103 | 0.0 | 2.0 | 0.12 | 0.21 | 0.21 | 96 | 1008.3 |
| 20260506141840 | 60 | 279 | 0.0 | 2.0 | 0.10 | 0.17 | 0.17 | 96 | 1008.0 |
| 20260506141328 | 61 | 267 | 0.0 | 3.0 | 0.10 | 0.17 | 0.17 | 95 | 1008.0 |
| 20260506140828 | 61 | 250 | 0.0 | 4.0 | 0.10 | 0.17 | 0.17 | 96 | 1007.9 |
| 20260506140327 | 60 | 301 | 2.0 | 4.0 | 0.10 | 0.17 | 0.17 | 96 | 1007.7 |
| 20260506135827 | 60 | 195 | 1.0 | 1.0 | 0.09 | 0.16 | 0.16 | 96 | 1007.6 |
| 20260506135328 | 60 | 67 | 0.0 | 1.0 | 0.09 | 0.16 | 0.16 | 96 | 1007.7 |
| 20260506134827 | 60 | 44 | 0.0 | 1.0 | 0.08 | 0.14 | 0.14 | 95 | 1007.6 |
| 20260506134328 | 60 | 287 | 0.0 | 2.0 | 0.07 | 0.13 | 0.13 | 95 | 1007.5 |
| 20260506133815 | 60 | 200 | 1.0 | 2.0 | 0.07 | 0.12 | 0.12 | 95 | 1007.8 |
| 20260506133537 | 60 | 16 | 0.0 | 1.0 | 0.06 | 0.11 | 0.11 | 94 | 1008.0 |
| 20260506132816 | 61 | 307 | 0.0 | 2.0 | 0.05 | 0.10 | 0.10 | 94 | 1008.0 |
| 20260506132316 | 61 | 22 | 0.0 | 2.0 | 0.04 | 0.08 | 0.08 | 93 | 1007.9 |
| 20260506131816 | 61 | 108 | 0.0 | 3.0 | 0.03 | 0.07 | 0.07 | 92 | 1007.9 |
| 20260506131316 | 61 | 278 | 1.0 | 3.0 | 0.03 | 0.07 | 0.07 | 92 | 1007.7 |
| 20260506130816 | 61 | 99 | 0.0 | 1.0 | 0.04 | 0.07 | 0.07 | 92 | 1007.8 |
| 20260506130303 | 61 | 334 | 0.0 | 1.0 | 0.04 | 0.07 | 0.07 | 92 | 1007.7 |
| 20260506125803 | 61 | 3 | 0.0 | 1.0 | 0.05 | 0.07 | 0.07 | 92 | 1007.6 |
| 20260506125305 | 61 | 113 | 0.0 | 2.0 | 0.06 | 0.07 | 0.07 | 92 | 1007.5 |
| 20260506124751 | 61 | 44 | 0.0 | 2.0 | 0.05 | 0.06 | 0.06 | 91 | 1007.9 |
| 20260506124252 | 61 | 90 | 0.0 | 1.0 | 0.06 | 0.06 | 0.06 | 91 | 1007.7 |
| 20260506124008 | 61 | 40 | 0.0 | 1.0 | 0.05 | 0.05 | 0.05 | 91 | 1007.8 |
| 20260506123240 | 61 | 39 | 0.0 | 3.0 | 0.05 | 0.05 | 0.05 | 91 | 1008.1 |
| 20260506122740 | 61 | 11 | 0.0 | 3.0 | 0.05 | 0.05 | 0.05 | 90 | 1008.1 |
| 20260506122240 | 61 | 276 | 0.0 | 2.0 | 0.04 | 0.04 | 0.04 | 90 | 1008.0 |
| 20260506121739 | 61 | 23 | 0.0 | 4.0 | 0.04 | 0.04 | 0.04 | 89 | 1008.4 |
| 20260506121239 | 61 | 135 | 0.0 | 4.0 | 0.03 | 0.03 | 0.03 | 88 | 1008.2 |
| 20260506120739 | 62 | 59 | 0.0 | 4.0 | 0.03 | 0.03 | 0.03 | 88 | 1008.4 |
| 20260506120239 | 62 | 315 | 0.0 | 4.0 | 0.03 | 0.03 | 0.03 | 86 | 1008.6 |
| 20260506115729 | 62 | 22 | 0.0 | 1.0 | 0.02 | 0.02 | 0.02 | 85 | 1008.5 |
| 20260506115230 | 62 | 322 | 0.0 | 1.0 | 0.01 | 0.01 | 0.01 | 84 | 1008.2 |
| 20260506114730 | 63 | 273 | 0.0 | 2.0 | 0.00 | 0.00 | 0.01 | 82 | 1008.0 |
| 20260506114230 | 63 | 329 | 0.0 | 2.0 | 0.00 | 0.00 | 0.00 | 81 | 1008.0 |
| 20260506113730 | 63 | 5 | 0.0 | 3.0 | 0.00 | 0.00 | 0.00 | 81 | 1007.8 |
| 20260506113230 | 64 | 190 | 1.0 | 4.0 | 0.00 | 0.00 | 0.00 | 78 | 1007.6 |
| 20260506112730 | 64 | 319 | 1.0 | 4.0 | 0.00 | 0.00 | 0.00 | 76 | 1007.9 |
| 20260506112449 | 64 | 86 | 0.0 | 3.0 | 0.00 | 0.00 | 0.00 | 76 | 1007.9 |
| 20260506111730 | 65 | 307 | 0.0 | 4.0 | 0.00 | 0.00 | 0.00 | 75 | 1007.6 |
| 20260506111439 | 65 | 306 | 1.0 | 9.0 | 0.00 | 0.00 | 0.00 | 71 | 1007.6 |
| 20260506111323 | 65 | 105 | 0.0 | 4.0 | 0.00 | 0.00 | 0.00 | 74 | 1007.7 |
| 20260506110228 | 66 | 206 | 1.0 | 9.0 | 0.00 | 0.00 | 0.00 | 70 | 1007.4 |
| 20260506105729 | 66 | 173 | 2.0 | 4.0 | 0.00 | 0.00 | 0.00 | 69 | 1007.4 |
| 20260506105229 | 65 | 31 | 1.0 | 3.0 | 0.00 | 0.00 | 0.00 | 73 | 1007.6 |
| 20260506104729 | 66 | 312 | 0.0 | 3.0 | 0.00 | 0.00 | 0.00 | 69 | 1007.1 |
| 20260506104228 | 65 | 206 | 0.0 | 2.0 | 0.00 | 0.00 | 0.00 | 69 | 1007.2 |
| 20260506103950 | 65 | 222 | 0.0 | 1.0 | 0.00 | 0.00 | 0.00 | 71 | 1007.2 |
| 20260506103229 | 65 | 72 | 0.0 | 1.0 | 0.00 | 0.00 | 0.00 | 70 | 1007.4 |
| 20260506102728 | 65 | 49 | 0.0 | 1.0 | 0.00 | 0.00 | 0.00 | 70 | 1007.1 |
| 20260506102228 | 66 | 314 | 0.0 | 2.0 | 0.00 | 0.00 | 0.00 | 68 | 1007.3 |
| 20260506101729 | 66 | 24 | 0.0 | 2.0 | 0.00 | 0.00 | 0.00 | 68 | 1007.1 |
| 20260506101229 | 66 | 54 | 0.0 | 1.0 | 0.00 | 0.00 | 0.00 | 68 | 1006.9 |
| 20260506100728 | 66 | 47 | 0.0 | 2.0 | 0.00 | 0.00 | 0.00 | 68 | 1007.0 |
| 20260506100228 | 67 | 90 | 0.0 | 2.0 | 0.00 | 0.00 | 0.00 | 66 | 1007.0 |
| 20260506095728 | 67 | 112 | 0.0 | 1.0 | 0.00 | 0.00 | 0.00 | 65 | 1006.8 |
| 20260506095242 | 67 | 189 | 0.0 | 3.0 | 0.00 | 0.00 | 0.00 | 65 | 1006.8 |
| 20260506094742 | 67 | 214 | 2.0 | 3.0 | 0.00 | 0.00 | 0.00 | 65 | 1006.9 |
| 20260506094241 | 67 | 136 | 0.0 | 3.0 | 0.00 | 0.00 | 0.00 | 65 | 1006.7 |
| 20260506093741 | 67 | 131 | 1.0 | 2.0 | 0.00 | 0.00 | 0.00 | 63 | 1006.9 |
| 20260506093500 | 68 | 109 | 0.0 | 7.0 | 0.00 | 0.00 | 0.00 | 62 | 1006.8 |
| 20260506092741 | 68 | 131 | 1.0 | 7.0 | 0.00 | 0.00 | 0.00 | 61 | 1006.8 |
| 20260506092240 | 68 | 171 | 2.0 | 4.0 | 0.00 | 0.00 | 0.00 | 61 | 1006.8 |
| 20260506091725 | 68 | 160 | 1.0 | 4.0 | 0.00 | 0.00 | 0.00 | 61 | 1007.0 |
| 20260506091226 | 68 | 143 | 1.0 | 3.0 | 0.00 | 0.00 | 0.00 | 61 | 1007.1 |
| 20260506090726 | 68 | 135 | 0.0 | 4.0 | 0.00 | 0.00 | 0.00 | 61 | 1007.1 |
| 20260506090453 | 68 | 315 | 0.0 | 4.0 | 0.00 | 0.00 | 0.00 | 61 | 1007.4 |
| 20260506085726 | 68 | 309 | 0.0 | 3.0 | 0.00 | 0.00 | 0.00 | 61 | 1007.2 |
| 20260506085225 | 68 | 104 | 0.0 | 3.0 | 0.00 | 0.00 | 0.00 | 61 | 1007.0 |
| 20260506084726 | 68 | 89 | 1.0 | 3.0 | 0.00 | 0.00 | 0.00 | 60 | 1007.1 |
| 20260506084225 | 68 | 60 | 0.0 | 2.0 | 0.00 | 0.00 | 0.00 | 60 | 1007.1 |
| 20260506083726 | 68 | 137 | 0.0 | 2.0 | 0.00 | 0.00 | 0.00 | 60 | 1006.9 |
| 20260506083225 | 68 | 171 | 2.0 | 3.0 | 0.00 | 0.00 | 0.00 | 60 | 1007.1 |
| 20260506082725 | 68 | 127 | 0.0 | 3.0 | 0.00 | 0.00 | 0.00 | 59 | 1007.0 |
| 20260506082225 | 68 | 128 | 1.0 | 3.0 | 0.00 | 0.00 | 0.00 | 59 | 1007.1 |
| 20260506081726 | 68 | 176 | 0.0 | 2.0 | 0.00 | 0.00 | 0.00 | 59 | 1007.2 |
| 20260506081226 | 68 | 142 | 0.0 | 2.0 | 0.00 | 0.00 | 0.00 | 59 | 1007.1 |
| 20260506080947 | 69 | 136 | 1.0 | 3.0 | 0.00 | 0.00 | 0.00 | 59 | 1007.0 |
| 20260506080226 | 69 | 104 | 0.0 | 3.0 | 0.00 | 0.00 | 0.00 | 58 | 1007.2 |
| 20260506073226 | 69 | 167 | 1.0 | 7.0 | 0.00 | 0.00 | 0.00 | 56 | 1007.1 |
| 20260506072726 | 69 | 116 | 2.0 | 7.0 | 0.00 | 0.00 | 0.00 | 56 | 1007.2 |
| 20260506072444 | 70 | 132 | 0.0 | 4.0 | 0.00 | 0.00 | 0.00 | 56 | 1007.3 |
| 20260506071952 | 69 | 100 | 2.0 | 4.0 | 0.00 | 0.00 | 0.00 | 55 | 1007.1 |
| 20260506071225 | 70 | 174 | 2.0 | 4.0 | 0.00 | 0.00 | 0.00 | 55 | 1007.3 |
| 20260506070726 | 69 | 172 | 0.0 | 3.0 | 0.00 | 0.00 | 0.00 | 55 | 1007.2 |